Total_Precipitation_Accumulation
0.00 0.00 0.00 0.00 0.01 0.02 0.04 0.05 0.10 0.11 0.14 0.21 0.32 0.52 0.72 0.83 0.95 1.06 1.06 1.15 1.43 1.90 2.27 2.52 2.67 2.84 2.97 3.16 3.40 3.66 4.01 4.14 3.89 3.82 3.75 3.62 3.28 3.11 2.81 2.51 2.22 2.10 2.06 2.22
0.00 0.01 0.01 0.00 0.01 0.03 0.04 0.06 0.10 0.11 0.15 0.22 0.28 0.47 0.68 0.72 0.91 1.00 1.06 1.17 1.30 1.57 2.06 2.29 2.30 2.51 2.64 2.92 3.39 3.70 3.69 3.61 3.38 3.43 3.61 3.76 3.70 3.29 2.75 2.46 2.33 2.05 1.95 2.05
0.01 0.02 0.01 0.01 0.01 0.02 0.07 0.09 0.10 0.11 0.15 0.25 0.34 0.74 0.87 0.77 0.88 0.96 1.02 1.16 1.27 1.44 1.62 1.85 1.87 1.92 2.09 2.39 2.78 2.91 2.78 2.69 2.58 2.57 2.75 2.89 3.10 2.96 2.63 2.32 2.15 2.01 1.92 1.87
0.01 0.01 0.01 0.02 0.02 0.02 0.06 0.05 0.05 0.08 0.18 0.35 0.43 0.85 1.07 1.07 1.13 1.00 1.01 1.06 1.29 1.41 1.46 1.55 1.63 1.65 1.66 1.65 1.76 1.88 1.96 1.99 2.04 2.07 2.21 2.37 2.55 2.53 2.44 2.35 2.08 1.85 1.67 1.60
0.02 0.02 0.02 0.03 0.04 0.03 0.05 0.04 0.05 0.09 0.18 0.37 0.43 0.62 1.01 1.25 1.29 1.07 1.01 1.01 1.16 1.15 1.17 1.25 1.34 1.37 1.37 1.36 1.47 1.56 1.68 1.82 1.95 1.98 2.02 2.14 2.41 2.38 2.19 2.02 1.85 1.73 1.60 1.49
0.03 0.04 0.04 0.04 0.04 0.03 0.05 0.06 0.12 0.17 0.28 0.64 0.55 0.61 0.96 1.17 1.03 1.00 0.90 0.85 0.91 0.89 0.97 1.08 1.16 1.19 1.17 1.18 1.31 1.40 1.47 1.54 1.64 1.72 1.73 1.69 1.77 1.79 1.68 1.60 1.54 1.43 1.32 1.28
0.12 0.10 0.08 0.05 0.05 0.06 0.08 0.14 0.47 0.87 1.04 1.00 0.60 0.68 1.10 0.97 0.80 0.78 0.78 0.81 0.83 0.82 0.78 0.87 1.03 1.02 1.03 1.05 1.11 1.18 1.25 1.27 1.26 1.28 1.19 1.12 1.18 1.31 1.31 1.28 1.27 1.22 1.08 1.00
0.21 0.24 0.16 0.09 0.08 0.09 0.13 0.22 0.61 0.88 0.88 0.86 0.71 1.06 1.25 0.84 0.73 0.68 0.60 0.59 0.58 0.55 0.54 0.60 0.69 0.74 0.76 0.83 0.90 0.96 0.99 1.01 1.02 1.04 1.04 0.93 0.94 1.03 1.10 1.19 1.12 1.07 0.94 0.84
0.14 0.16 0.11 0.08 0.07 0.10 0.21 0.28 0.30 0.50 0.58 0.86 1.01 1.22 1.07 0.77 0.73 0.67 0.66 0.59 0.54 0.48 0.45 0.48 0.52 0.54 0.51 0.56 0.63 0.68 0.74 0.84 0.91 0.93 0.92 0.82 0.81 0.93 1.01 1.06 1.09 1.11 1.07 0.98
0.07 0.09 0.11 0.08 0.10 0.14 0.17 0.21 0.28 0.42 0.60 0.82 0.97 1.23 1.37 1.16 0.96 0.83 0.88 0.74 0.61 0.47 0.39 0.38 0.36 0.35 0.33 0.38 0.49 0.60 0.75 0.83 0.81 0.76 0.69 0.61 0.68 0.87 0.95 0.90 0.90 1.01 1.05 1.03
0.06 0.07 0.10 0.13 0.13 0.16 0.19 0.22 0.29 0.35 0.40 0.59 0.92 1.10 0.89 0.95 0.91 0.87 0.78 0.68 0.55 0.42 0.35 0.32 0.31 0.30 0.29 0.32 0.39 0.50 0.59 0.73 0.76 0.67 0.60 0.55 0.54 0.61 0.71 0.76 0.76 0.83 0.89 0.94
0.08 0.08 0.14 0.19 0.16 0.15 0.17 0.20 0.31 0.47 0.49 0.55 0.74 0.91 0.59 0.67 0.65 0.56 0.49 0.40 0.33 0.29 0.25 0.23 0.25 0.29 0.35 0.42 0.42 0.43 0.45 0.51 0.61 0.61 0.57 0.55 0.53 0.50 0.47 0.51 0.56 0.60 0.66 0.70
0.10 0.13 0.25 0.45 0.47 0.28 0.23 0.20 0.24 0.31 0.39 0.44 0.63 0.79 0.60 0.53 0.53 0.52 0.49 0.45 0.36 0.29 0.25 0.25 0.26 0.27 0.31 0.40 0.49 0.46 0.47 0.49 0.57 0.58 0.57 0.57 0.55 0.51 0.43 0.40 0.42 0.44 0.44 0.44
0.08 0.10 0.20 0.42 0.40 0.32 0.29 0.26 0.27 0.32 0.42 0.42 0.45 0.64 0.70 0.64 0.59 0.53 0.49 0.44 0.38 0.27 0.22 0.23 0.27 0.29 0.30 0.34 0.39 0.42 0.44 0.48 0.55 0.62 0.71 0.68 0.59 0.54 0.47 0.39 0.37 0.35 0.34 0.34
0.08 0.08 0.10 0.13 0.18 0.26 0.30 0.25 0.25 0.26 0.28 0.41 0.36 0.46 0.63 0.58 0.57 0.52 0.45 0.35 0.28 0.25 0.23 0.23 0.28 0.31 0.32 0.33 0.33 0.34 0.40 0.46 0.48 0.57 0.67 0.68 0.62 0.55 0.50 0.42 0.34 0.32 0.32 0.29
0.15 0.13 0.14 0.14 0.19 0.25 0.28 0.25 0.20 0.18 0.17 0.22 0.26 0.39 0.42 0.36 0.40 0.41 0.36 0.34 0.27 0.26 0.24 0.22 0.22 0.24 0.29 0.28 0.26 0.27 0.30 0.35 0.40 0.45 0.51 0.56 0.56 0.51 0.45 0.38 0.33 0.30 0.29 0.30
0.26 0.25 0.21 0.20 0.22 0.28 0.34 0.27 0.20 0.15 0.12 0.20 0.35 0.48 0.40 0.35 0.37 0.34 0.28 0.25 0.22 0.18 0.15 0.14 0.15 0.17 0.19 0.17 0.17 0.22 0.25 0.27 0.35 0.43 0.45 0.50 0.55 0.53 0.43 0.33 0.31 0.32 0.34 0.37
0.22 0.30 0.31 0.30 0.37 0.49 0.32 0.17 0.16 0.16 0.12 0.12 0.23 0.34 0.36 0.31 0.26 0.21 0.18 0.16 0.15 0.10 0.09 0.08 0.07 0.09 0.10 0.11 0.14 0.18 0.22 0.30 0.35 0.44 0.49 0.53 0.55 0.55 0.51 0.44 0.43 0.46 0.48 0.49
0.22 0.31 0.34 0.38 0.48 0.41 0.23 0.19 0.19 0.22 0.21 0.14 0.19 0.25 0.23 0.22 0.21 0.22 0.16 0.14 0.12 0.08 0.08 0.08 0.07 0.07 0.09 0.13 0.18 0.25 0.33 0.41 0.45 0.48 0.51 0.54 0.60 0.67 0.67 0.61 0.55 0.55 0.57 0.54
0.26 0.33 0.44 0.45 0.59 0.53 0.35 0.25 0.22 0.26 0.45 0.31 0.26 0.25 0.21 0.21 0.33 0.36 0.18 0.10 0.08 0.09 0.10 0.09 0.10 0.11 0.15 0.19 0.25 0.35 0.45 0.53 0.58 0.56 0.54 0.58 0.63 0.71 0.78 0.76 0.70 0.64 0.66 0.58
0.54 0.51 0.48 0.55 0.65 0.49 0.33 0.27 0.31 0.54 0.67 0.41 0.36 0.34 0.29 0.30 0.31 0.26 0.15 0.10 0.07 0.08 0.10 0.10 0.13 0.17 0.20 0.22 0.29 0.41 0.51 0.58 0.63 0.61 0.62 0.71 0.77 0.83 0.87 0.92 0.89 0.83 0.76 0.69
0.65 0.70 0.69 0.73 0.83 0.75 0.46 0.37 0.50 0.59 0.48 0.44 0.40 0.39 0.36 0.33 0.29 0.23 0.19 0.14 0.10 0.08 0.09 0.11 0.17 0.22 0.23 0.25 0.35 0.47 0.54 0.59 0.67 0.70 0.75 0.82 0.92 0.88 0.90 1.11 1.12 1.12 1.05 0.89
0.68 0.78 0.87 0.86 0.84 0.64 0.59 0.61 0.62 0.59 0.52 0.48 0.37 0.32 0.30 0.29 0.28 0.30 0.28 0.20 0.16 0.14 0.14 0.16 0.22 0.28 0.35 0.43 0.52 0.61 0.61 0.68 0.78 0.86 0.93 0.93 0.95 1.01 1.08 1.16 1.18 1.16 1.14 1.05
0.58 0.54 0.74 0.88 0.81 0.73 0.62 0.47 0.51 0.63 0.53 0.38 0.29 0.28 0.28 0.26 0.23 0.22 0.21 0.20 0.18 0.18 0.21 0.22 0.26 0.38 0.50 0.60 0.64 0.65 0.69 0.78 0.90 1.01 1.09 1.13 1.12 1.08 1.11 1.24 1.24 1.19 1.13 1.10
0.36 0.38 0.57 0.77 0.79 0.82 0.72 0.45 0.33 0.38 0.33 0.25 0.27 0.27 0.26 0.22 0.18 0.16 0.15 0.15 0.16 0.18 0.23 0.29 0.37 0.46 0.50 0.62 0.75 0.79 0.89 1.04 1.11 1.10 1.11 1.17 1.23 1.29 1.30 1.28 1.26 1.22 1.20 1.08
0.32 0.37 0.54 0.69 0.63 0.67 0.64 0.47 0.35 0.29 0.26 0.23 0.29 0.30 0.25 0.22 0.22 0.20 0.17 0.17 0.17 0.20 0.26 0.34 0.45 0.56 0.63 0.77 0.92 0.99 1.11 1.26 1.39 1.35 1.24 1.27 1.31 1.36 1.39 1.37 1.28 1.15 1.05 0.93